GFSCGP_sfc_30mbdewp_168.txt.gz
Dewpoint
37 33 28 29 31 30 30 30 28 28 29 30 30 29 29 30 30 31 31 31 31 35 49 54 51 51 50 50 48 48 48 48 48 48 46 45 44 43 41 40 38 38 37 33
34 30 31 32 32 31 32 29 28 29 29 30 31 29 29 29 28 28 30 32 32 35 46 52 50 50 50 49 48 49 48 48 48 48 48 47 46 45 42 40 39 38 36 34
30 30 34 33 32 32 31 29 27 27 29 30 28 26 26 26 25 25 28 30 31 34 45 49 48 48 49 48 48 48 48 48 48 48 48 47 47 46 43 41 40 38 35 33
34 34 33 32 32 34 28 31 31 30 29 24 28 19 21 22 21 24 27 27 28 30 45 49 48 48 48 48 48 48 48 48 48 48 47 46 46 45 45 43 42 40 37 35
30 31 32 32 32 35 31 32 33 32 30 28 28 24 21 23 22 23 24 26 26 27 45 48 48 49 49 49 48 47 47 47 48 47 47 46 45 45 46 45 43 42 40 39
35 37 37 35 36 36 35 34 33 34 29 21 22 24 19 20 21 23 25 26 27 31 46 47 48 49 49 50 48 46 46 46 47 47 46 46 44 45 45 45 44 44 44 43
29 30 36 37 33 34 35 31 21 19 19 16 26 26 23 23 24 25 26 27 27 33 45 47 47 47 48 48 47 46 46 46 46 46 46 45 44 45 45 45 44 44 43 44
26 22 31 36 34 31 31 30 24 17 17 18 27 23 23 27 28 30 28 29 29 42 45 45 45 47 48 47 46 44 44 45 45 46 45 45 45 44 43 43 42 42 42 42
26 25 28 33 35 33 30 28 30 28 27 23 22 24 27 25 28 35 31 31 37 43 43 44 45 46 46 46 45 45 44 44 45 45 45 45 44 43 43 44 44 43 43 42
29 26 28 29 32 33 32 30 27 27 19 18 21 25 27 26 28 32 40 40 42 42 43 44 45 45 45 46 47 45 44 43 44 44 45 45 45 45 44 44 43 43 43 42
30 31 25 28 25 25 27 28 31 30 28 22 19 22 33 29 33 33 35 42 42 42 43 44 45 45 46 46 47 45 45 44 44 44 45 45 45 45 44 44 43 43 40 40
30 31 27 25 27 26 28 26 30 26 22 25 26 24 28 34 37 36 35 42 43 43 43 44 46 46 45 45 47 46 45 44 44 45 45 45 45 44 43 43 40 36 34 34
30 28 24 20 21 24 24 25 27 29 29 25 23 22 26 30 35 36 37 42 42 43 44 44 46 45 44 45 46 46 45 45 45 45 45 44 44 43 39 35 34 32 29 25
31 29 27 23 24 26 26 26 26 26 24 23 24 24 25 28 32 36 38 39 40 42 43 44 44 44 45 45 46 45 44 45 45 44 44 43 41 37 34 32 29 24 22 19
32 27 27 28 29 28 27 26 25 24 23 23 22 23 21 29 33 38 39 38 39 41 42 43 43 43 45 45 44 44 43 44 43 42 40 38 35 32 28 24 21 20 19 20
30 27 27 25 25 24 23 23 22 20 22 22 21 21 23 33 37 38 38 38 39 40 41 42 42 43 44 44 42 41 41 40 39 38 35 33 29 25 22 20 19 20 20 20
27 26 25 22 24 21 13 15 15 17 20 20 18 19 22 31 35 38 38 38 38 38 39 41 42 41 40 40 39 38 37 36 35 33 31 27 23 20 19 19 18 18 18 19
27 26 25 23 20 10 13 18 14 16 18 19 20 19 20 31 36 37 37 39 38 36 37 37 37 37 35 35 34 34 34 33 31 29 26 22 20 19 19 17 17 18 19 19
29 26 24 20 19 19 12 13 11 13 17 14 17 20 25 31 33 35 34 41 34 34 34 34 35 34 33 32 33 32 31 30 28 25 22 20 20 18 16 15 16 18 18 18
28 26 23 21 18 13 14 17 15 16 13 16 23 23 23 23 25 28 35 40 30 31 31 32 32 32 31 31 31 30 28 26 24 22 21 20 19 16 14 15 17 19 18 17
23 23 23 23 22 21 22 21 16 10 9 17 24 25 24 22 23 26 30 29 29 29 30 31 31 30 30 30 29 27 25 23 22 21 20 19 17 16 16 16 16 16 16 16
15 19 20 21 21 14 21 11 8 11 16 21 24 25 25 26 28 28 29 28 28 29 30 30 30 30 30 29 27 25 23 23 21 20 18 17 15 15 15 14 15 17 16 15
12 17 16 20 17 22 22 17 15 18 19 20 25 26 26 27 28 28 28 28 29 29 30 30 30 28 27 26 24 22 22 20 18 16 14 13 15 15 15 14 15 15 17 17
15 21 19 15 14 15 15 17 19 19 21 24 26 26 27 27 28 28 28 28 29 29 29 29 28 26 24 23 22 21 19 16 14 12 12 15 14 15 16 17 18 17 17 18
18 17 16 15 16 16 18 17 17 18 23 26 27 27 28 28 28 28 28 28 27 27 28 27 26 23 21 20 19 17 15 13 11 11 13 17 16 15 16 18 18 19 21 23
20 18 16 14 18 17 18 21 19 20 22 25 26 27 28 28 28 28 27 26 25 25 25 24 21 19 17 16 15 14 12 10 10 12 14 15 16 17 17 17 18 23 25 26

GFSCGP_sfc_30mbdewp_174.txt.gz
Dewpoint
37 34 30 28 30 30 29 29 29 29 30 29 27 27 27 27 27 28 28 28 28 28 29 31 32 38 53 54 56 54 52 52 50 48 46 45 44 44 43 42 42 40 37 34
34 31 29 31 32 31 31 29 29 29 29 29 28 27 28 27 27 27 27 28 29 29 28 28 32 36 51 54 54 52 51 50 51 49 46 45 44 43 42 42 41 39 36 34
30 28 32 32 31 31 30 29 28 28 30 30 28 24 20 22 24 24 26 27 29 29 29 28 30 39 50 53 54 52 51 50 49 49 47 45 45 43 41 41 40 39 36 34
33 33 32 31 31 31 28 29 30 30 30 25 30 22 23 22 23 25 26 26 27 28 29 29 29 41 49 52 53 52 51 51 51 50 47 45 43 41 41 40 40 37 35 34
30 30 30 31 31 32 30 31 32 32 30 29 26 27 19 19 22 27 29 30 32 28 28 28 28 41 51 52 52 51 50 50 50 50 47 45 43 43 42 41 39 37 37 37
33 35 35 33 33 33 33 33 30 31 30 23 21 23 17 18 24 28 29 31 35 34 27 28 29 42 51 52 52 51 50 50 50 50 47 45 45 44 42 41 40 39 39 40
28 29 34 35 32 31 34 29 21 20 22 17 20 22 20 22 27 30 30 32 35 37 28 28 30 43 50 51 51 51 50 49 50 49 46 46 46 45 44 42 41 41 42 42
28 23 26 34 31 27 28 29 24 17 15 19 19 21 16 24 30 31 33 35 37 36 30 28 35 45 49 50 50 50 50 49 49 47 46 46 46 46 44 43 43 43 44 44
24 26 28 29 30 31 29 27 29 27 22 22 17 18 21 25 29 33 34 37 37 38 30 30 40 46 49 50 50 50 50 49 49 49 46 45 45 45 45 45 44 44 44 45
28 25 27 29 30 31 30 31 28 26 18 13 12 13 17 22 30 34 35 36 36 39 33 37 43 47 49 49 50 50 50 49 48 47 46 45 45 44 43 43 43 43 42 43
30 28 24 27 23 20 26 27 30 30 27 19 15 13 20 28 28 33 36 37 40 39 39 41 45 47 48 49 49 49 49 48 47 47 45 44 44 43 43 43 43 42 42 42
30 29 26 23 23 27 26 25 27 26 22 24 24 19 29 27 27 33 37 40 43 41 41 43 45 48 48 49 49 48 48 46 46 46 44 44 43 44 43 43 42 42 40 37
30 25 21 14 20 25 24 22 26 28 30 22 21 17 22 22 23 35 38 41 43 43 43 44 45 46 47 48 47 48 47 46 45 45 44 44 43 43 42 40 38 36 33 28
31 27 23 16 15 17 19 22 23 25 24 20 18 18 17 21 25 36 38 40 43 43 43 43 46 46 46 47 46 46 46 46 45 44 44 44 43 41 39 36 33 28 24 20
31 25 25 26 26 25 24 24 24 24 25 22 16 17 20 20 29 39 39 39 42 43 44 43 45 46 46 46 46 46 46 45 45 44 43 42 40 36 33 29 24 21 20 19
33 24 27 23 20 25 23 23 22 21 20 19 19 17 17 26 40 39 39 39 40 42 44 44 45 45 45 45 45 45 45 45 44 43 40 37 34 31 27 23 20 20 20 19
27 26 24 17 21 21 16 16 17 17 15 15 14 15 20 31 36 38 38 40 41 42 43 44 45 46 46 46 45 45 44 44 41 38 36 32 28 25 22 20 20 20 19 20
26 25 25 20 21 8 14 19 19 16 13 15 16 19 23 34 39 39 41 41 41 42 43 44 46 45 46 45 44 43 42 40 38 35 30 26 23 21 20 19 18 18 18 18
28 25 21 21 18 16 15 14 19 11 13 14 17 21 23 26 37 38 41 38 37 40 41 41 41 42 42 42 42 41 40 37 34 29 26 23 21 21 20 18 18 19 18 17
28 27 23 22 19 9 13 16 18 16 13 15 19 22 24 25 31 33 40 34 36 38 38 38 38 40 40 39 39 38 36 34 30 27 24 21 20 20 18 19 18 18 17 16
25 25 23 22 21 19 21 24 18 9 12 17 19 24 25 24 25 28 40 32 35 37 36 37 37 37 36 37 36 33 31 29 26 24 22 20 18 18 18 17 17 16 16 16
22 22 22 23 21 14 23 19 14 16 19 19 20 25 26 27 28 33 38 32 34 35 35 35 35 33 32 33 32 31 28 25 22 21 19 17 16 16 16 15 15 14 14 14
13 18 18 21 19 22 23 21 21 21 19 19 22 26 27 27 28 33 35 32 33 33 33 34 33 31 30 30 30 26 23 20 18 16 15 14 14 14 14 13 14 14 14 15
16 20 18 18 17 18 18 18 19 20 19 21 25 27 27 27 29 29 31 32 32 32 31 31 30 29 27 27 26 22 20 17 15 14 13 13 12 12 13 14 14 14 15 16
18 19 17 18 17 18 19 20 21 20 20 24 27 28 28 29 29 29 30 30 31 31 30 29 28 27 25 24 21 19 17 14 13 13 13 13 15 13 14 15 15 16 19 18
19 18 15 13 18 18 19 20 22 22 20 24 26 27 29 29 29 29 29 30 30 30 29 28 27 26 24 21 19 17 14 13 13 12 14 15 14 14 15 15 17 25 26 27

GFSCGP_sfc_30mbdewp_177.txt.gz
Dewpoint
35 33 31 27 26 27 28 28 27 28 28 28 27 27 27 26 25 25 25 25 25 26 28 30 30 31 33 35 38 54 55 54 53 53 51 49 48 47 45 45 45 41 38 36
33 31 29 30 30 30 29 28 28 26 26 26 27 26 26 23 23 23 24 24 25 26 27 29 30 30 32 34 46 55 54 52 52 52 52 51 48 46 44 44 43 40 38 36
29 27 30 30 29 30 29 28 27 25 26 28 27 24 18 20 22 23 26 28 29 30 29 29 29 30 32 35 51 53 53 51 51 52 52 51 49 45 43 43 42 39 36 34
31 31 31 30 30 30 30 28 25 27 27 24 30 21 22 21 19 19 25 28 29 31 34 30 29 30 32 36 53 52 52 52 52 52 50 48 46 43 43 42 41 38 36 35
30 28 29 29 28 29 28 29 29 29 29 30 25 26 19 18 14 20 25 28 29 32 32 35 29 31 31 41 52 53 51 51 52 52 51 50 48 45 42 42 39 38 37 38
32 33 33 32 32 31 30 30 28 31 31 23 20 21 18 17 17 19 24 30 33 35 35 36 31 30 31 47 53 52 51 51 51 51 51 50 49 46 42 40 39 38 39 40
28 28 31 34 29 24 30 25 22 18 21 17 15 16 17 17 19 22 29 32 34 37 37 37 29 28 32 51 52 51 51 50 51 51 51 50 48 45 42 41 40 40 40 41
28 25 28 31 29 26 25 27 24 17 14 18 19 17 15 17 20 28 30 32 35 38 38 36 29 30 42 51 51 50 50 50 51 51 51 50 49 45 43 42 42 42 42 43
20 23 27 26 27 29 24 26 30 26 22 18 15 14 14 19 25 28 29 32 37 38 38 34 30 33 49 50 50 50 49 50 50 50 50 48 47 45 43 43 44 44 45 44
24 22 24 26 28 27 28 27 25 24 19 14 13 13 17 18 26 27 26 34 38 41 40 32 30 42 47 50 50 50 50 49 50 49 48 47 45 44 44 44 44 45 45 44
27 24 23 25 23 19 20 25 31 30 27 21 17 14 17 22 25 26 32 37 40 43 37 33 40 45 48 50 50 50 50 49 49 49 47 46 44 44 43 42 42 42 42 42
27 25 22 23 22 21 23 23 22 24 20 23 22 20 19 21 22 29 34 37 42 41 41 45 46 48 49 49 49 50 49 47 47 48 47 46 43 42 42 42 42 42 41 39
28 24 20 18 18 25 21 15 16 18 25 23 21 19 20 19 25 30 34 40 42 43 44 46 47 47 48 48 48 48 48 48 48 47 47 46 45 43 42 42 41 39 35 32
31 25 22 19 18 20 20 20 21 21 21 21 19 18 19 18 27 35 38 40 42 43 43 46 46 47 48 47 47 47 47 47 46 46 46 46 46 43 40 38 34 30 25 21
29 24 24 23 22 22 21 20 20 21 22 20 19 17 16 19 30 37 39 40 42 42 43 44 45 46 47 47 47 46 47 47 47 46 46 45 42 38 34 29 26 22 20 20
30 24 24 23 20 18 20 18 19 20 19 15 14 13 15 25 35 38 39 39 41 43 43 45 45 46 45 45 45 46 46 47 47 46 43 40 36 32 27 23 21 21 20 19
27 26 22 20 17 18 16 17 15 16 14 13 11 13 17 26 32 39 38 41 41 42 44 44 45 45 45 45 45 45 45 46 43 41 39 35 30 26 23 21 21 20 19 19
25 25 24 21 19 12 15 16 18 17 14 14 15 16 20 25 29 40 40 38 41 42 44 45 46 46 45 45 45 45 43 41 40 36 33 29 26 22 21 20 20 19 19 18
27 24 21 20 17 17 16 14 19 16 10 17 17 18 21 25 28 38 40 37 39 41 42 41 42 44 44 44 43 43 42 40 36 32 28 24 23 21 21 20 19 18 18 17
26 26 21 20 18 13 13 17 21 15 13 17 18 19 23 25 28 36 39 36 38 39 40 42 42 43 42 42 42 40 39 38 36 33 27 23 22 21 21 21 20 19 19 18
24 24 22 21 20 20 20 22 18 11 13 19 18 20 24 24 27 29 40 38 40 40 40 41 41 41 41 41 40 39 38 35 32 25 22 22 21 21 19 19 19 18 18 17
22 22 21 21 20 17 21 20 14 18 20 20 19 22 26 27 28 34 39 35 38 40 38 38 38 39 40 40 38 36 31 27 24 22 21 20 19 17 18 17 16 16 15 15
19 20 20 21 21 21 21 21 21 20 19 20 21 24 26 27 28 35 38 34 35 37 39 38 35 36 37 38 34 29 25 22 20 18 17 16 15 15 15 14 13 13 14 15
15 20 17 18 17 20 20 20 21 22 19 20 24 26 27 27 29 33 35 33 34 34 35 35 35 34 33 31 27 24 21 18 15 15 14 14 13 12 13 13 14 16 15 15
17 18 16 17 17 18 19 19 21 23 21 20 25 27 28 29 29 31 33 34 34 33 32 33 32 30 28 25 23 20 18 15 14 13 13 13 14 12 13 15 16 15 17 19
19 17 16 12 17 18 20 21 24 23 22 21 24 26 29 29 30 30 30 32 32 31 31 30 29 26 25 22 20 18 15 14 13 13 14 16 14 14 16 16 18 25 26 26

GFSCGP_sfc_30mbdewp_180.txt.gz
Dewpoint
37 33 34 29 28 27 28 28 28 29 29 27 26 26 27 28 28 27 26 26 25 26 29 29 31 32 32 33 34 35 57 55 55 53 53 53 53 53 53 49 44 41 39 36
33 33 30 31 30 29 29 28 28 28 27 26 26 27 29 27 25 24 24 25 26 28 30 32 30 32 33 33 35 40 55 54 54 53 52 52 52 53 52 52 43 40 38 36
29 29 30 29 29 29 30 29 28 26 27 29 28 25 23 25 23 23 24 27 29 30 31 34 35 32 33 33 36 48 54 53 53 52 52 52 51 49 49 49 45 39 37 35
31 31 30 30 30 30 28 27 27 28 28 25 29 23 25 23 20 20 22 26 29 33 35 36 36 36 33 34 40 54 54 53 52 52 51 50 48 46 46 45 44 38 36 35
25 29 31 31 30 28 27 28 29 30 28 29 26 27 25 22 19 18 20 25 33 34 34 34 36 36 37 35 50 54 53 52 52 52 51 50 48 48 48 46 40 38 38 38
32 32 32 32 32 32 31 29 27 27 30 23 21 25 23 18 16 18 26 31 32 32 33 36 39 39 37 38 52 53 52 52 52 51 50 49 48 47 47 44 39 38 39 40
29 29 32 33 31 28 26 25 21 20 20 17 18 19 17 19 24 28 29 29 30 34 36 38 39 39 36 49 51 51 52 51 52 51 50 49 49 47 45 43 39 39 40 40
27 20 28 32 31 27 26 26 23 17 16 18 22 20 19 18 26 27 27 29 34 34 37 40 40 39 41 50 51 50 51 50 51 50 50 50 49 48 46 42 40 41 42 42
20 22 27 27 27 27 25 23 28 27 25 21 19 17 18 20 27 28 28 31 34 37 39 42 43 35 50 50 50 51 50 50 50 51 51 50 49 48 46 43 42 43 43 43
25 21 25 26 28 28 27 27 24 25 19 15 15 16 17 18 25 27 28 29 32 37 40 43 34 44 50 50 49 50 50 50 51 51 51 50 48 45 45 44 44 44 44 44
27 24 23 25 24 23 24 26 27 30 27 19 18 15 18 19 24 28 31 33 37 38 43 43 42 48 50 50 50 49 50 50 50 50 51 49 46 47 45 45 45 44 44 43
28 26 23 21 23 23 20 20 20 20 19 22 21 20 22 21 25 31 31 38 40 42 45 45 48 48 49 49 49 49 49 49 49 49 49 47 45 44 44 43 43 43 42 40
28 26 19 17 21 24 21 22 22 20 20 19 20 19 19 22 25 29 37 37 40 43 45 47 47 47 48 48 48 49 48 48 48 47 47 46 44 43 42 41 40 38 35 29
30 24 21 16 16 22 23 23 23 21 19 20 21 21 21 19 25 29 37 37 39 43 44 46 47 47 47 47 47 47 47 47 47 47 46 44 43 42 41 38 34 29 22 21
30 25 24 25 24 24 23 23 23 21 20 19 20 20 18 19 25 30 38 38 38 42 44 45 46 46 46 46 46 45 46 47 47 46 46 44 42 38 32 28 23 21 20 21
30 27 26 24 23 23 20 19 20 20 19 19 19 14 14 20 26 29 39 38 40 42 44 45 46 46 46 46 45 45 46 47 47 46 44 42 38 33 26 21 21 20 20 23
27 28 24 21 23 22 18 18 17 17 17 15 12 13 17 20 25 28 38 37 41 43 44 45 45 45 46 46 45 45 46 47 45 43 41 38 31 25 23 21 20 19 19 22
24 25 25 22 22 16 16 18 17 17 18 17 16 16 18 22 26 36 38 37 39 43 44 45 45 45 45 46 46 46 45 43 42 41 38 32 25 22 21 20 19 19 18 19
27 26 23 19 19 19 18 14 18 17 15 17 16 18 20 24 26 37 38 38 39 40 42 44 45 44 44 43 43 42 41 40 38 36 34 27 22 21 21 20 19 19 18 18
26 27 24 20 19 15 15 17 21 15 12 20 19 18 23 25 26 31 38 40 40 40 42 43 44 43 43 43 42 40 38 36 34 31 29 24 22 21 21 20 19 20 19 18
23 24 24 22 21 21 22 22 18 11 14 21 21 20 24 24 26 30 37 40 40 40 41 43 43 42 42 42 41 39 38 36 34 31 28 23 22 21 21 20 19 19 19 19
23 22 22 23 21 17 23 19 14 19 20 20 21 23 25 27 28 39 35 40 40 38 39 41 41 41 41 41 40 38 36 35 32 27 23 21 20 19 19 18 17 17 17 16
21 22 22 22 21 22 23 20 22 21 21 20 21 24 26 27 29 38 34 35 39 39 38 39 40 40 40 40 38 36 32 28 23 20 18 18 18 17 16 15 15 15 15 15
19 23 18 22 19 22 23 24 20 22 22 20 22 26 27 27 29 36 34 34 35 39 39 37 39 39 38 36 34 28 23 20 18 16 15 15 15 14 14 15 16 16 17 16
16 18 19 18 18 18 19 19 21 23 24 21 22 27 28 29 30 34 34 35 34 34 36 37 36 33 30 27 24 21 18 16 15 14 14 14 16 14 15 19 17 18 23 18
18 17 16 15 18 18 20 22 24 23 23 21 23 26 29 29 30 31 33 33 33 32 32 31 29 25 24 21 19 17 15 14 13 13 15 15 14 15 18 20 23 28 27 28

GFSCGP_sfc_30mbdewp_183.txt.gz
Dewpoint
39 30 28 32 29 29 28 28 28 29 30 30 26 27 28 29 29 29 28 27 27 27 29 30 31 31 32 33 33 35 55 56 55 55 54 53 54 54 53 54 53 49 43 38
32 27 33 30 30 30 29 28 28 29 30 28 28 28 29 28 27 27 25 24 26 27 30 34 36 36 34 33 34 38 54 55 54 54 54 53 53 53 53 50 48 48 42 36
30 27 31 30 28 29 29 29 28 28 28 29 29 25 25 26 26 25 24 25 26 29 33 35 36 36 36 35 35 39 54 54 54 54 54 53 53 52 50 49 47 44 40 35
31 32 29 30 30 31 27 29 28 27 28 24 29 23 25 26 24 24 23 26 30 34 34 35 35 35 35 34 36 40 53 53 53 53 52 52 51 49 50 48 47 47 44 38
18 30 30 29 28 30 26 29 30 29 28 28 26 26 24 25 23 22 26 32 32 32 33 34 35 36 37 39 39 43 53 53 53 52 52 51 50 49 49 47 45 44 42 38
33 33 32 31 32 32 31 30 26 28 28 22 20 22 14 14 18 26 28 28 31 33 33 33 35 35 39 41 42 47 52 52 52 52 52 50 48 47 46 44 42 42 41 39
28 30 33 33 30 29 27 25 16 13 14 10 19 19 18 19 25 27 27 29 31 32 33 34 38 39 41 42 44 50 51 50 50 52 51 49 48 46 44 43 41 39 39 39
23 9 30 32 27 25 27 25 18 12 13 15 22 20 18 21 25 29 28 30 29 30 31 34 39 40 44 44 49 49 49 49 50 51 50 49 48 46 45 44 43 41 40 41
21 20 29 31 30 28 24 23 26 25 25 22 20 19 16 20 20 27 28 30 31 35 37 39 41 44 44 49 49 49 49 51 51 50 49 48 47 46 45 45 43 42 42 43
25 20 23 26 28 27 25 27 22 23 16 15 16 15 15 17 20 28 30 31 35 39 40 42 45 47 49 49 49 49 49 49 50 50 49 48 47 46 45 44 42 42 42 43
27 25 21 25 25 23 26 25 27 27 26 18 16 14 17 17 20 28 30 34 38 37 41 45 45 47 48 49 49 49 49 50 50 50 49 48 48 47 46 45 43 43 43 43
28 26 24 21 22 24 24 22 22 17 18 25 20 19 20 20 23 27 31 36 38 39 42 46 45 48 48 49 49 49 50 50 50 50 48 48 48 47 47 45 45 44 42 42
28 25 20 10 18 23 19 21 22 23 22 21 19 17 20 19 23 26 35 37 37 38 43 46 46 47 48 48 49 49 49 49 50 49 48 47 47 47 46 45 44 42 40 35
29 26 21 14 12 20 21 23 24 24 21 20 19 18 19 20 21 26 36 37 38 40 45 46 46 47 47 48 47 47 47 48 48 47 46 46 45 44 44 42 37 33 27 23
28 26 26 26 26 25 24 23 23 22 23 21 19 19 19 19 21 26 36 37 36 41 44 45 44 46 46 46 46 46 46 46 45 44 43 43 42 40 36 29 27 23 21 22
31 27 28 26 26 24 22 21 19 22 21 21 20 19 19 18 23 26 37 37 37 42 44 45 46 46 45 45 45 46 46 45 44 42 40 37 32 28 25 24 22 22 24 26
28 31 26 22 23 22 14 19 20 19 20 18 15 15 17 17 22 34 37 37 38 41 44 45 45 46 45 45 46 45 45 44 43 41 39 35 29 23 22 21 21 24 25 26
27 28 28 24 21 12 12 20 18 16 17 18 17 17 17 19 29 38 38 38 38 40 44 45 45 45 46 46 46 46 45 44 42 40 37 36 32 26 21 20 20 23 25 25
28 25 25 21 19 19 18 17 17 15 15 17 18 19 19 23 32 37 37 40 39 40 42 45 45 45 46 45 44 44 42 40 38 37 35 33 31 28 21 19 20 21 23 25
26 27 24 22 20 14 15 17 20 16 10 18 20 20 21 24 20 27 37 40 40 41 42 43 43 42 42 43 42 40 39 38 36 35 33 30 28 23 20 20 20 20 21 22
23 25 25 23 22 21 23 23 18 11 10 20 20 21 23 23 26 30 37 40 40 41 42 43 42 41 41 41 40 38 36 35 35 33 32 27 22 21 20 19 19 20 20 20
21 22 22 24 23 18 23 19 14 16 20 20 21 23 25 26 29 38 38 40 39 40 41 42 41 41 41 41 40 37 35 35 34 30 26 22 21 20 19 18 19 19 18 17
21 21 21 22 21 23 23 21 20 21 20 20 20 23 26 27 30 37 35 39 39 39 40 41 41 40 41 40 38 36 34 33 30 25 20 19 19 18 17 16 16 16 16 17
22 24 22 23 23 23 24 23 22 21 21 21 21 25 27 27 32 36 34 37 39 38 39 40 41 40 38 38 37 35 33 31 23 19 18 17 16 15 15 16 17 16 16 17
25 21 22 20 20 19 19 22 21 22 24 22 21 26 27 29 32 36 34 34 37 39 39 40 39 38 36 33 32 31 28 21 17 16 15 15 17 15 16 17 17 17 17 17
28 20 18 18 19 19 19 21 23 22 23 21 22 26 29 29 30 35 34 35 34 36 37 36 33 33 31 29 28 23 18 16 15 14 16 16 15 19 23 23 26 30 31 29

GFSCGP_sfc_30mbdewp_186.txt.gz
Dewpoint
38 29 21 31 29 28 28 27 26 27 29 29 27 27 27 28 29 29 27 28 27 26 28 30 33 34 34 33 33 33 45 55 55 55 55 54 53 54 54 54 53 52 50 48
29 21 30 33 30 29 28 27 26 28 29 28 27 27 27 28 28 27 26 26 25 26 29 35 36 36 36 35 35 36 50 55 54 56 55 54 54 53 53 53 50 48 48 47
27 24 32 30 29 28 28 27 26 24 29 29 27 25 24 25 27 26 26 26 28 28 33 35 35 35 35 34 34 35 47 53 54 55 54 54 53 52 50 50 48 46 45 44
30 31 29 29 29 30 24 29 29 29 27 22 28 20 23 25 25 22 26 31 32 33 33 34 34 34 35 35 36 36 43 52 54 54 54 53 52 51 50 47 46 44 41 42
13 29 30 30 28 30 23 30 29 29 27 27 25 24 19 24 15 19 28 29 29 31 32 31 33 33 33 35 37 39 40 51 53 54 53 52 51 51 50 47 45 44 41 38
32 34 32 30 32 32 32 29 25 27 25 20 21 20 15 17 15 22 28 28 28 29 29 30 31 33 33 36 40 41 42 49 52 53 53 52 51 50 48 47 45 45 44 41
26 29 33 33 30 28 27 24 12 7 9 8 20 18 16 18 19 25 27 27 28 30 31 32 36 38 39 39 42 43 43 46 51 52 51 51 51 49 48 46 45 43 42 40
21 3 29 32 28 24 26 24 14 10 10 13 21 19 15 21 22 28 28 29 30 31 33 37 39 40 42 42 44 45 47 49 50 50 50 50 49 49 47 46 45 43 40 39
17 19 27 32 30 28 25 24 24 22 23 20 19 20 18 18 21 25 24 30 30 34 37 39 40 44 46 47 46 47 49 49 49 50 49 49 48 47 45 44 43 42 41 41
24 18 23 25 29 28 25 26 21 22 15 13 15 16 15 15 17 21 26 29 34 37 38 40 42 45 47 47 47 48 49 48 49 49 49 48 47 46 45 43 42 42 42 43
27 24 20 24 23 22 26 25 26 26 23 18 16 15 17 17 19 23 26 30 37 37 38 40 43 46 48 48 48 49 49 50 49 49 49 47 46 46 45 43 42 41 42 42
27 26 24 22 22 25 24 24 26 21 17 24 22 18 20 19 21 24 26 33 38 38 39 43 47 45 46 47 48 49 49 49 50 49 48 47 46 45 44 44 43 44 43 42
26 24 18 15 14 21 21 21 21 22 23 20 19 18 20 20 22 21 25 35 37 37 40 45 46 44 48 48 48 49 50 50 50 49 47 47 46 45 44 45 44 43 42 40
30 26 21 18 17 17 20 23 24 23 22 20 20 20 21 21 21 20 29 36 37 37 42 45 42 43 45 46 47 48 49 50 49 48 47 46 46 45 45 44 43 40 37 31
30 25 26 25 25 26 26 26 25 24 23 22 19 19 19 22 20 21 32 39 37 38 41 44 45 45 46 46 46 46 48 48 48 47 46 46 45 43 41 39 35 30 27 24
30 29 30 28 28 27 25 23 23 21 20 20 21 21 23 20 19 24 36 38 37 38 40 44 46 45 45 45 45 44 44 44 42 41 42 43 41 40 38 33 29 25 24 24
29 30 28 23 23 23 20 17 18 20 20 19 16 17 18 18 20 25 37 37 37 38 40 44 45 45 45 45 44 42 42 41 40 38 37 36 36 36 35 31 28 25 25 27
25 25 28 24 24 17 18 20 20 19 18 19 18 18 17 19 23 35 37 38 38 39 40 42 45 45 45 45 45 44 43 41 39 37 34 33 31 30 28 27 26 26 26 27
27 24 24 22 21 20 21 17 17 16 17 17 16 19 19 22 33 35 36 39 40 40 41 43 45 46 46 45 44 40 39 39 38 37 35 33 30 26 24 24 25 26 26 27
26 26 25 24 21 16 16 19 19 16 15 15 20 18 20 23 18 23 35 40 40 41 43 42 43 45 44 43 41 40 39 38 36 36 36 34 31 24 22 23 24 25 25 26
21 25 24 24 23 23 24 23 20 16 14 20 19 20 23 21 24 27 39 40 40 41 42 42 41 41 42 41 40 39 38 36 36 35 35 34 31 23 21 22 23 23 23 22
16 17 21 25 23 19 23 21 19 17 19 20 20 22 24 25 28 37 39 39 39 40 41 41 40 40 41 40 39 37 35 35 35 33 33 32 26 20 21 21 21 20 20 20
18 18 18 23 22 23 23 22 21 20 20 20 20 21 26 26 29 37 36 39 39 40 40 41 40 40 40 40 37 35 35 34 33 30 24 22 19 19 19 19 18 18 18 18
22 23 21 21 21 23 23 24 25 24 21 22 21 23 26 26 31 35 36 40 39 39 40 41 40 38 38 38 37 35 34 32 29 24 21 18 17 16 16 17 17 17 17 18
23 25 22 22 23 23 22 22 22 23 23 23 21 23 26 28 30 35 35 37 39 39 41 41 40 38 37 36 35 35 33 30 28 21 17 17 19 15 16 17 17 16 17 18
28 26 24 22 24 22 21 21 21 22 22 22 21 24 28 28 29 35 34 35 39 39 40 39 38 36 34 35 34 33 29 26 20 17 17 18 16 17 18 21 26 27 22 24

GFSCGP_sfc_30mbdewp_189.txt.gz
Dewpoint
37 25 16 27 29 27 27 27 25 26 27 27 27 27 27 28 28 27 26 26 26 27 28 36 37 37 36 36 35 35 38 50 55 55 54 55 54 55 54 55 55 55 53 52
25 14 26 32 30 29 28 26 23 25 28 28 27 27 27 26 26 26 26 26 27 27 30 35 36 35 35 35 35 35 40 51 54 54 54 54 54 54 54 54 54 52 51 51
23 22 32 31 29 27 27 25 23 22 29 28 27 19 21 23 26 27 25 29 33 33 32 31 32 33 34 33 32 32 36 46 53 53 54 54 53 52 51 51 50 51 50 49
29 31 29 29 28 29 21 28 28 28 27 19 27 11 20 22 23 22 21 31 29 29 30 31 31 31 32 33 33 35 36 41 50 53 52 52 52 51 51 50 48 49 48 47
10 27 29 28 27 30 21 30 30 29 27 26 24 23 17 21 15 14 20 29 28 28 30 30 30 30 31 32 33 35 37 39 43 52 52 52 52 51 51 49 45 45 46 46
30 34 32 29 31 31 31 28 23 23 24 16 19 19 12 14 13 17 25 27 28 28 29 30 31 34 35 39 40 39 39 39 41 51 52 52 52 51 49 47 45 43 43 43
24 27 33 32 30 29 27 22 12 7 7 5 22 18 16 17 18 18 20 24 28 29 31 32 36 39 40 40 42 43 42 41 43 49 51 52 52 50 48 47 46 42 41 40
16 -3 28 32 29 23 26 23 16 8 8 11 18 18 14 21 23 23 25 29 29 30 31 35 38 40 40 43 46 47 44 43 44 49 50 51 51 50 48 47 46 43 40 39
16 16 25 32 31 28 25 24 23 19 21 20 18 19 17 19 19 23 24 25 26 29 34 38 39 40 43 47 46 47 45 45 45 49 50 50 51 49 49 48 45 45 43 41
23 16 22 25 30 29 26 26 22 22 16 12 13 15 13 15 17 20 22 23 26 32 36 38 40 43 46 47 48 48 49 49 49 50 50 50 49 49 48 47 46 43 42 41
27 24 20 24 21 18 25 25 26 24 21 17 14 11 18 17 18 20 23 24 29 34 37 38 43 46 45 47 48 49 48 49 49 49 49 48 48 46 44 44 43 41 41 41
28 26 23 21 22 25 24 24 25 21 19 23 20 17 19 19 20 22 23 24 32 36 38 38 44 44 46 47 47 48 49 49 49 49 48 47 46 44 43 42 42 42 42 43
27 23 19 17 17 21 21 23 23 22 22 19 18 15 19 18 19 22 22 24 32 38 38 40 44 43 44 46 48 48 49 49 49 49 48 46 46 44 43 42 42 42 42 43
30 25 22 19 18 19 18 19 21 23 22 20 19 18 19 19 20 21 24 25 35 39 38 41 44 46 46 46 46 48 49 50 49 48 46 45 45 44 44 43 43 42 39 38
30 26 26 25 25 26 26 26 26 25 25 23 21 21 21 21 21 23 22 30 38 37 38 39 44 45 45 45 45 46 48 49 48 47 46 45 45 44 44 42 40 38 36 31
34 28 30 26 27 26 25 25 26 25 25 23 23 22 23 22 21 19 24 37 38 38 38 40 43 45 44 44 42 42 43 46 47 45 44 43 42 41 39 37 36 34 32 29
29 29 27 21 24 25 20 22 22 20 20 19 17 16 17 19 19 21 31 35 37 39 39 40 42 45 44 42 41 40 39 40 41 40 40 40 39 38 36 35 33 29 28 26
27 26 25 20 22 11 16 21 22 20 19 19 19 19 19 19 21 26 36 36 38 39 39 40 42 45 44 43 42 40 39 38 37 37 37 38 37 36 34 32 30 27 26 26
30 24 21 19 17 15 18 18 17 17 18 17 17 18 19 20 23 26 35 38 40 40 40 42 45 45 44 40 40 39 38 37 36 35 35 36 36 35 33 30 28 27 28 28
26 27 21 21 18 15 17 19 19 17 13 17 20 18 18 23 14 20 32 40 39 41 42 42 43 44 41 41 41 39 37 36 35 34 34 34 34 34 31 28 28 28 28 29
21 24 21 21 20 20 24 23 21 18 14 19 19 19 20 21 21 25 35 40 40 41 41 41 41 41 41 41 40 38 37 35 36 35 33 31 31 31 29 27 27 27 27 28
11 15 19 22 21 16 23 22 20 20 20 20 20 20 21 23 25 30 36 39 40 40 40 40 40 39 40 40 38 36 35 36 36 35 33 28 26 24 25 26 25 24 23 26
14 14 12 19 18 23 24 22 23 23 22 23 21 21 21 24 25 31 35 39 39 40 40 40 39 39 39 38 37 35 35 35 35 34 30 25 21 22 23 21 20 20 20 21
20 21 18 17 17 19 20 20 23 24 23 24 23 22 22 24 26 31 35 40 39 40 40 40 39 38 37 37 36 35 35 33 32 32 29 24 21 20 20 19 19 19 19 20
24 26 23 21 22 23 23 23 24 24 24 23 23 21 22 26 27 31 34 37 39 40 41 40 38 37 36 36 35 35 34 31 26 24 20 19 20 18 19 19 18 18 18 18
22 23 23 22 22 22 22 24 24 22 22 22 23 23 26 27 28 32 35 35 39 40 41 40 37 37 36 36 35 35 34 31 23 18 19 20 18 18 18 19 20 22 22 24

GFSCGP_sfc_30mbdewp_192.txt.gz
Dewpoint
35 18 11 24 27 26 26 25 24 25 27 27 25 26 26 27 27 24 25 26 26 28 29 37 36 35 34 33 33 34 37 44 50 52 52 53 54 54 55 55 56 55 54 53
21 10 25 31 30 29 28 25 21 23 27 28 27 26 24 25 23 25 25 24 30 32 33 33 31 32 32 33 32 33 33 42 50 53 53 53 53 53 54 54 55 55 54 53
17 23 32 30 28 26 26 23 21 23 28 27 26 15 14 20 25 27 26 26 32 32 30 30 30 31 31 31 32 33 33 36 45 52 53 53 53 52 52 53 54 53 53 52
26 30 29 28 26 27 17 26 27 28 26 17 26 9 15 20 19 19 19 30 30 29 29 29 29 30 30 32 33 34 35 36 40 49 52 51 50 49 51 52 53 52 52 51
9 27 28 26 25 29 20 30 30 29 25 25 22 21 13 19 10 11 15 21 29 29 29 28 29 30 32 34 36 36 38 38 38 42 50 51 49 51 51 51 51 51 50 50
28 34 31 27 31 30 31 26 21 20 24 14 17 18 11 11 11 15 19 22 25 27 28 29 30 32 34 39 41 42 42 42 41 40 47 49 49 50 50 48 49 49 49 48
22 25 33 32 29 29 26 20 0 1 3 2 22 18 15 14 16 18 19 21 23 28 27 29 30 36 38 40 41 43 44 45 44 41 41 45 49 50 50 48 47 47 47 46
10 -4 27 32 28 22 26 22 8 3 5 9 19 16 12 20 21 23 23 24 28 25 27 29 34 39 39 41 43 46 47 46 47 43 42 46 49 50 50 48 46 46 46 45
13 9 25 32 31 27 25 22 22 18 19 20 18 17 17 18 19 20 21 22 24 25 27 33 37 39 42 44 45 47 48 48 45 44 45 48 50 50 49 49 46 45 44 42
20 10 22 26 30 29 26 26 21 23 16 12 13 13 11 12 13 18 20 22 24 26 31 36 38 40 44 46 46 48 49 49 49 46 47 48 50 50 48 47 46 43 41 40
26 22 19 24 22 17 24 25 25 23 19 17 13 12 16 15 17 19 21 22 23 27 32 38 39 40 44 46 47 48 49 49 49 50 50 50 50 49 48 46 45 43 41 40
28 25 21 20 23 25 25 25 25 20 19 23 20 16 18 17 19 19 21 22 25 31 36 39 39 43 44 45 46 48 49 49 49 49 48 47 46 47 46 45 43 42 42 42
27 23 18 17 20 22 22 25 25 24 21 19 18 16 18 20 22 22 22 24 26 33 39 38 39 43 45 46 46 47 48 49 49 48 47 46 45 44 44 43 42 42 42 42
30 25 22 17 15 18 19 20 21 20 20 20 21 21 22 20 20 23 23 24 26 39 39 38 38 42 45 46 46 47 48 49 49 48 46 45 44 43 43 42 42 42 41 40
30 25 25 25 25 25 24 23 24 24 24 23 21 21 22 23 23 23 22 23 36 37 38 38 39 40 45 45 43 43 45 48 48 47 45 45 44 43 43 42 41 40 40 39
34 26 28 25 25 25 25 26 26 26 25 25 24 24 25 24 21 20 21 28 35 36 38 39 39 41 44 42 41 40 40 44 47 46 44 44 44 43 40 39 38 37 36 36
28 27 25 20 24 22 18 19 20 22 24 24 19 18 19 19 20 20 23 33 35 37 39 39 40 44 42 41 39 38 38 42 43 42 42 41 40 39 38 37 35 34 34 32
25 28 24 19 21 14 13 19 20 20 21 21 20 19 19 19 20 24 34 35 38 39 39 40 41 43 42 41 39 39 38 38 38 38 38 37 37 36 35 34 34 31 29 28
31 24 20 16 17 15 16 13 17 19 18 19 17 18 19 19 22 21 30 39 40 40 41 42 43 42 41 40 39 38 38 37 36 36 36 36 36 35 34 33 33 32 29 28
30 29 22 20 16 11 17 19 19 18 14 17 20 19 19 21 19 18 25 39 39 41 41 41 43 41 41 40 39 37 36 35 35 35 36 36 35 34 33 32 31 31 30 30
23 24 21 19 17 18 20 18 22 18 16 20 21 20 20 20 21 22 27 39 40 41 41 41 41 40 41 40 38 36 35 34 34 35 35 35 34 33 32 30 30 29 30 31
4 11 17 19 18 14 21 24 22 21 22 22 21 22 22 22 22 25 33 39 40 40 40 40 39 39 40 39 37 35 34 35 34 32 32 33 33 31 29 27 28 29 30 30
10 10 10 19 17 19 24 22 23 23 23 22 23 23 24 22 23 25 33 39 40 40 40 40 39 38 38 38 36 35 35 35 33 31 28 26 27 26 26 26 27 28 28 28
21 20 17 16 14 13 13 13 17 22 24 23 24 24 24 23 24 25 32 38 40 41 40 39 38 38 37 37 37 36 36 35 32 29 27 26 25 24 24 23 22 21 23 25
6 19 23 22 24 24 24 23 23 23 24 24 23 24 23 22 24 26 31 36 40 41 40 39 38 37 36 36 35 35 34 34 31 28 23 24 25 22 20 20 20 20 20 21
18 17 16 14 16 21 21 23 23 22 23 24 25 25 24 24 26 28 32 35 40 41 40 38 37 37 36 35 35 34 32 31 30 26 22 21 20 20 19 20 21 24 23 24